Flag for Germany Weather past 2 weeks in Lindlar, North Rhine-Westphalia, Germany

Now
43 °F

Passing clouds.


Feels Like: 42 °F
Forecast: 36 / 42 °F
Wind: 3 mph from West

Location: Koeln / Bonn

Current Time: Dec 19, 2014 at 7:34:53 PM

Latest Report: Dec 19, 2014 at 7:00 PM


Visibility: 25 mi

Pressure: 30.04 "Hg

Humidity: 82%

Dew point: 38 °F

Location of LindlarLocation

Historic Weather in Lindlar — Graph

°F

Lindlar temperature yesterday

Maximum temperature yesterday: 56 °F (at 7:00 PM)
Minimum temperature yesterday: 49 °F (at 1:00 AM)
Average temperature yesterday: 52 °F

Past Weeks' High & Low Weather Summary

 TemperatureHumidityPressure
High56 °F (Dec 18, 7:00 PM)100% (Dec 7, 5:00 AM)30.40 "Hg (Dec 7, 5:00 AM)
Low31 °F (Dec 14, 11:00 PM)64% (Dec 10, 6:00 AM)29.44 "Hg (Dec 12, 6:00 PM)
Average41 °F88%29.99 "Hg
* Reported Dec 4 6:00 PM — Dec 19 6:00 PM, Lindlar, Weather by CustomWeather, © 2014

Note: Actual official high and low records may vary slightly from our data, if they occured in-between our weather recording intervals... More about our weather records

Advertising

Lindlar weather history for previous 24 hours

 ConditionsComfort  
Time TempWeatherWind HumidityBarometerVisibility
6:00 PM
Dec 19
44 °FPassing clouds.6 mph81%30.01 "Hg25 mi
5:00 PM47 °FOvercast.6 mph82%29.98 "Hg19 mi
4:00 PM48 °FOvercast.7 mph90%29.94 "Hg12 mi
3:00 PM51 °FLight rain. Low clouds.5 mph94%29.89 "Hg9 mi
2:00 PM52 °FLight rain. Overcast.5 mph92%29.86 "Hg3 mi
1:00 PM51 °FLight rain. Overcast.7 mph93%29.88 "Hg7 mi
12:00 PM52 °FLight rain. Overcast.6 mph90%29.88 "Hg12 mi
11:00 AM51 °FRain. Overcast.6 mph92%29.89 "Hg9 mi
10:00 AM52 °FRain. Overcast.7 mph87%29.89 "Hg9 mi
9:00 AM53 °FLight rain. Overcast.6 mph80%29.90 "Hg19 mi
8:00 AM53 °FLight rain. Overcast.8 mph80%29.90 "Hg37 mi
7:00 AM54 °FOvercast.7 mph76%29.91 "Hg37 mi
6:00 AM54 °FOvercast.7 mph77%29.92 "Hg37 mi
5:00 AM54 °FOvercast.8 mph77%29.93 "Hg37 mi
4:00 AM54 °FOvercast.7 mph77%29.95 "Hg37 mi
3:00 AM54 °FOvercast.7 mph77%29.95 "Hg37 mi
2:00 AM54 °FOvercast.7 mph78%29.96 "Hg37 mi
1:00 AM55 °FOvercast.6 mph79%29.96 "Hg37 mi
12:00 AM55 °FOvercast.6 mph79%29.95 "Hg37 mi
11:00 PM
Dec 18
55 °FOvercast.7 mph79%29.95 "Hg37 mi
10:00 PM55 °FOvercast.5 mph78%29.95 "Hg37 mi
9:00 PM55 °FOvercast.7 mph75%29.95 "Hg37 mi
8:00 PM55 °FOvercast.7 mph79%29.95 "Hg37 mi
7:00 PM56 °FOvercast.7 mph83%29.93 "Hg31 mi
Weather by CustomWeather, © 2014

See weather overviewHow to use our weather pages